Time_in_sec,gx,gy,gz
1323442549.05350280,0.05752343,0.03814425,-0.99761519
1323442549.10554504,0.05740676,0.03817763,-0.99762064
1323442549.15252352,0.05767424,0.03786704,-0.99761705
1323442549.20149469,0.05766015,0.03798083,-0.99761353
1323442549.25354433,0.05794774,0.03839313,-0.99758109
1323442549.30149031,0.05744487,0.03810121,-0.99762136
1323442549.35353732,0.05760160,0.03826031,-0.99760624
1323442549.40178776,0.05748020,0.03829302,-0.99761198
1323442549.45349431,0.05773105,0.03823957,-0.99759955
1323442549.50553966,0.05771282,0.03755524,-0.99762660
1323442549.55264115,0.05788941,0.03755146,-0.99761651
1323442549.60149598,0.05794971,0.03763923,-0.99760970
1323442549.65332651,0.05779952,0.03761699,-0.99761925
1323442549.70458961,0.05775730,0.03758260,-0.99762300
1323442549.75975490,0.05807986,0.03753514,-0.99760606
1323442549.80463099,0.05814103,0.03651871,-0.99764022
1323442549.85366893,0.05831565,0.03642827,-0.99763333
1323442549.90129018,0.05821983,0.03656106,-0.99763407
1323442549.95357919,0.05832772,0.03668904,-0.99762307
1323442550.00161505,0.05825805,0.03677823,-0.99762386
1323442550.05263257,0.05801963,0.03575310,-0.99767502
1323442550.11323452,0.05803878,0.03596834,-0.99766617
1323442550.15571809,0.05803223,0.03606577,-0.99766303
1323442550.20560741,0.05801026,0.03615866,-0.99766095
1323442550.25354075,0.05807953,0.03605602,-0.99766063
1323442550.30515981,0.05868692,0.03581102,-0.99763391
1323442550.35256124,0.05860119,0.03605917,-0.99763001
1323442550.40147853,0.05841414,0.03601422,-0.99764260
1323442550.45350218,0.05855128,0.03610865,-0.99763115
1323442550.50552154,0.05749953,0.03605712,-0.99769419
1323442550.55357075,0.05725598,0.03608639,-0.99770713
1323442550.60453129,0.05717240,0.03593572,-0.99771736
1323442550.66158366,0.05721434,0.03591841,-0.99771558
1323442550.70503545,0.05720565,0.03597013,-0.99771422
1323442550.76088905,0.05723027,0.03613082,-0.99770700
1323442550.80149841,0.05720922,0.03572219,-0.99772292
1323442550.85250688,0.05710151,0.03543125,-0.99773947
1323442550.90449309,0.05713996,0.03574377,-0.99772612
1323442550.95410109,0.05699796,0.03561794,-0.99773874
1323442551.00155425,0.05706569,0.03539321,-0.99774287
1323442551.06550980,0.05708310,0.03540941,-0.99774130
1323442551.10456467,0.05684624,0.03559995,-0.99774804
1323442551.15281677,0.05683703,0.03589105,-0.99773813
1323442551.20460486,0.05695901,0.03594307,-0.99772931
1323442551.25351000,0.05675524,0.03617217,-0.99773264
1323442551.30554271,0.05659993,0.03647863,-0.99773030
1323442551.35352635,0.05658344,0.03640297,-0.99773400
1323442551.40476823,0.05659491,0.03652313,-0.99772896
1323442551.46551633,0.05669333,0.03649255,-0.99772449
1323442551.50563478,0.05674652,0.03607016,-0.99773683
1323442551.56398773,0.05661421,0.03594444,-0.99774888
1323442551.60627627,0.05654258,0.03595231,-0.99775266
1323442551.65272284,0.05654261,0.03608574,-0.99774784
1323442551.70464277,0.05642797,0.03606132,-0.99775521
1323442551.75353551,0.05675587,0.03638564,-0.99772484
1323442551.81290317,0.05644972,0.03616317,-0.99775030
1323442551.86548448,0.05638625,0.03625220,-0.99775065
1323442551.90555143,0.05642712,0.03664597,-0.99773396
1323442551.95515823,0.05622390,0.03668543,-0.99774398
1323442552.00151134,0.05614008,0.03702244,-0.99773625
1323442552.05254817,0.05545750,0.03645834,-0.99779520
1323442552.10153532,0.05541060,0.03659287,-0.99779288
1323442552.15352631,0.05552739,0.03666538,-0.99778372
1323442552.20149469,0.05571741,0.03660681,-0.99777528
1323442552.26152921,0.05590251,0.03695717,-0.99775201
1323442552.31322169,0.05588327,0.03649638,-0.99777005
1323442552.36553073,0.05586498,0.03664964,-0.99776546
1323442552.40533423,0.05600561,0.03667717,-0.99775656
1323442552.45250916,0.05593167,0.03674980,-0.99775804
1323442552.50165868,0.05520979,0.03634376,-0.99781311
1323442552.55351996,0.05511329,0.03628907,-0.99782044
1323442552.61335206,0.05540825,0.03652350,-0.99779555
1323442552.66165686,0.05546924,0.03661782,-0.99778870
1323442552.70464468,0.05536842,0.03655488,-0.99779661
1323442552.76547694,0.05547932,0.03678565,-0.99778197
1323442552.81352520,0.05502677,0.03580520,-0.99784269
1323442552.85256314,0.05503294,0.03559382,-0.99784992
1323442552.91256094,0.05506019,0.03559620,-0.99784833
1323442552.95124841,0.05515745,0.03571909,-0.99783857
1323442553.00532508,0.05483400,0.03551228,-0.99786377
1323442553.06194258,0.05505009,0.03551246,-0.99785187
1323442553.10554790,0.05486683,0.03559625,-0.99785898
1323442553.15357065,0.05487624,0.03564448,-0.99785674
1323442553.21355677,0.05490312,0.03573616,-0.99785198
1323442553.26456881,0.05505360,0.03600822,-0.99783391
1323442553.30463648,0.05492182,0.03595888,-0.99784295
1323442553.36153793,0.05495366,0.03614922,-0.99783432
1323442553.41256618,0.05511731,0.03587231,-0.99783529
1323442553.45353055,0.05496600,0.03588833,-0.99784306
1323442553.51323915,0.05500657,0.03587484,-0.99784131
1323442553.56164360,0.05501842,0.03589881,-0.99783979
1323442553.60152149,0.05511582,0.03597789,-0.99783157
1323442553.66153955,0.05524812,0.03580745,-0.99783038
1323442553.70154262,0.05500579,0.03602257,-0.99783603
1323442553.75351214,0.05519843,0.03594831,-0.99782807
1323442553.80146980,0.05608984,0.03592914,-0.99777905
1323442553.86150765,0.05589904,0.03604039,-0.99778574
1323442553.90452409,0.05588544,0.03593731,-0.99779022
1323442553.96553707,0.05595017,0.03616056,-0.99777853
1323442554.01352286,0.05528854,0.03653513,-0.99780176
1323442554.05273676,0.05516776,0.03637659,-0.99781424
1323442554.11291933,0.05514062,0.03647219,-0.99781225
1323442554.16555262,0.05498624,0.03649783,-0.99781983
1323442554.20564318,0.05499916,0.03653610,-0.99781772
1323442554.26577449,0.05480728,0.03667136,-0.99782332
1323442554.31364226,0.05474840,0.03616350,-0.99784508
1323442554.35265970,0.05470742,0.03624096,-0.99784452
1323442554.41349864,0.05470199,0.03621286,-0.99784584
1323442554.45272303,0.05489403,0.03623564,-0.99783447
1323442554.50453877,0.05472303,0.03621260,-0.99784470
1323442554.55356550,0.05456958,0.03543408,-0.99788105
1323442554.60555363,0.05450917,0.03524725,-0.99789097
1323442554.65353513,0.05428257,0.03528791,-0.99790188
1323442554.70555425,0.05428161,0.03534295,-0.99789999
1323442554.75652885,0.05411566,0.03541452,-0.99790646
1323442554.80464959,0.05391764,0.03509807,-0.99792836
1323442554.85270309,0.05386031,0.03492497,-0.99793753
1323442554.90469861,0.05407685,0.03487676,-0.99792751
1323442554.95362234,0.05386302,0.03481511,-0.99794122
1323442555.00553894,0.05343413,0.03443329,-0.99797753
1323442555.05354023,0.05335367,0.03457437,-0.99797695
1323442555.10551596,0.05318247,0.03432922,-0.99799455
1323442555.16158223,0.05308669,0.03424995,-0.99800238
1323442555.20149350,0.05324566,0.03455474,-0.99798340
1323442555.25344586,0.05320698,0.03446473,-0.99798858
1323442555.30543518,0.05314524,0.03444812,-0.99799244
1323442555.36554003,0.05315659,0.03422201,-0.99799961
1323442555.40863276,0.05305696,0.03419307,-0.99800591
1323442555.46152163,0.05299931,0.03407870,-0.99801288
1323442555.50448918,0.05284255,0.03356237,-0.99803869
1323442555.55334806,0.05261600,0.03362799,-0.99804845
1323442555.60490966,0.05259981,0.03356205,-0.99805153
1323442555.65324831,0.05268760,0.03374067,-0.99804087
1323442555.70167565,0.05267693,0.03376131,-0.99804074
1323442555.76164269,0.05251159,0.03388468,-0.99804527
1323442555.80552649,0.05209391,0.03374635,-0.99807185
1323442555.85353827,0.05198382,0.03357749,-0.99808328
1323442555.90454388,0.05192219,0.03383148,-0.99807791
1323442555.95328236,0.05214972,0.03387281,-0.99806465
1323442556.01356316,0.05220131,0.03366891,-0.99806885
1323442556.05263877,0.05197583,0.03385192,-0.99807443
1323442556.10463095,0.05201453,0.03388880,-0.99807116
1323442556.16509748,0.05202457,0.03382497,-0.99807280
1323442556.20463252,0.05208328,0.03401808,-0.99806318
1323442556.25351381,0.05202226,0.03414906,-0.99806189
1323442556.30110455,0.05176838,0.03407554,-0.99807760
1323442556.35315514,0.05177812,0.03399164,-0.99807995
1323442556.40149498,0.05153940,0.03412285,-0.99808783
1323442556.45309854,0.05140706,0.03388763,-0.99810267
1323442556.50155258,0.05158602,0.03384317,-0.99809495
1323442556.56557441,0.05161020,0.03358634,-0.99810237
1323442556.60154629,0.05145891,0.03384698,-0.99810138
1323442556.65354681,0.05125573,0.03392909,-0.99810905
1323442556.70495939,0.05152768,0.03389416,-0.99809623
1323442556.75279784,0.05154611,0.03387958,-0.99809577
1323442556.80153513,0.05120025,0.03388256,-0.99811347
1323442556.85367751,0.05140781,0.03384313,-0.99810414
1323442556.90472341,0.05140739,0.03409885,-0.99809546
1323442556.95357347,0.05131689,0.03414632,-0.99809850
1323442557.00565839,0.05159095,0.03398206,-0.99808997
1323442557.05354261,0.05184833,0.03374038,-0.99808484
1323442557.10556793,0.05199703,0.03397063,-0.99806929
1323442557.15281963,0.05183797,0.03394053,-0.99807859
1323442557.20549417,0.05149657,0.03404361,-0.99809275
1323442557.25266457,0.05161362,0.03390174,-0.99809153
1323442557.30567813,0.05150423,0.03360259,-0.99810730
1323442557.35350919,0.05151274,0.03373940,-0.99810224
1323442557.40555167,0.05153581,0.03386670,-0.99809674
1323442557.45355296,0.05145909,0.03370646,-0.99810612
1323442557.50464749,0.05210364,0.03327093,-0.99808730
1323442557.55433750,0.05205053,0.03330380,-0.99808897
1323442557.60740948,0.05195467,0.03351005,-0.99808706
1323442557.65367508,0.05192779,0.03346168,-0.99809009
1323442557.70462060,0.05191729,0.03361707,-0.99808541
1323442557.76455045,0.05191841,0.03335351,-0.99809419
1323442557.80465055,0.05172126,0.03338071,-0.99810352
1323442557.85354519,0.05168549,0.03336195,-0.99810600
1323442557.90453339,0.05163173,0.03335895,-0.99810888
1323442557.95263290,0.05146943,0.03342566,-0.99811503
1323442558.00152040,0.05147469,0.03400175,-0.99809530
1323442558.05250788,0.05135921,0.03390270,-0.99810462
1323442558.10465240,0.05110688,0.03406506,-0.99811205
1323442558.15353751,0.05114511,0.03409256,-0.99810915
1323442558.20150113,0.05103910,0.03413086,-0.99811327
1323442558.25520110,0.05093777,0.03449262,-0.99810601
1323442558.31253004,0.05082736,0.03441486,-0.99811432
1323442558.35264754,0.05073273,0.03449446,-0.99811639
1323442558.40537596,0.05074452,0.03450765,-0.99811533
1323442558.45340538,0.05075542,0.03460166,-0.99811152
1323442558.50456953,0.05101653,0.03435711,-0.99810666
1323442558.55216432,0.05123436,0.03485619,-0.99807820
1323442558.60452318,0.05114766,0.03495759,-0.99807910
1323442558.65354323,0.05097473,0.03471364,-0.99809646
1323442558.70129704,0.05106009,0.03472292,-0.99809177
1323442558.75653887,0.05095800,0.03354396,-0.99813731
1323442558.80127740,0.05082565,0.03358987,-0.99814251
1323442558.85254788,0.05065630,0.03377526,-0.99814487
1323442558.90462828,0.05081452,0.03363705,-0.99814149
1323442558.95351458,0.05066990,0.03378995,-0.99814368
1323442559.00142670,0.04987806,0.03383317,-0.99818210
1323442559.05355406,0.05007091,0.03366561,-0.99817811
1323442559.10109758,0.05001197,0.03367132,-0.99818087
1323442559.15324092,0.05018933,0.03385499,-0.99816575
1323442559.20148087,0.05001238,0.03408639,-0.99816676
1323442559.25325799,0.04845458,0.03404878,-0.99824488
1323442559.30817342,0.04855147,0.03411583,-0.99823788
1323442559.35480118,0.04845687,0.03431744,-0.99823557
1323442559.40152407,0.04864665,0.03430359,-0.99822681
1323442559.45352006,0.04877872,0.03434988,-0.99821877
1323442559.50149560,0.04744165,0.03517872,-0.99825435
1323442559.55259037,0.04739389,0.03532297,-0.99825153
1323442559.60152364,0.04734097,0.03520304,-0.99825827
1323442559.65310812,0.04699080,0.03526895,-0.99827249
1323442559.70454669,0.04682803,0.03537108,-0.99827653
1323442559.75675201,0.04687889,0.03536474,-0.99827436
1323442559.80566144,0.04755497,0.03617968,-0.99821318
1323442559.85404801,0.04748572,0.03611321,-0.99821889
1323442559.90458941,0.04764176,0.03623413,-0.99820707
1323442559.95365357,0.04745076,0.03621020,-0.99821703
1323442560.00698662,0.04809812,0.03719021,-0.99815002
1323442560.05287075,0.04829435,0.03758973,-0.99812558
1323442560.10566211,0.04821359,0.03759796,-0.99812917
1323442560.16556549,0.04809286,0.03759664,-0.99813505
1323442560.20567036,0.04798480,0.03772544,-0.99813539
1323442560.25352240,0.04793479,0.03776751,-0.99813620
1323442560.30469346,0.04733508,0.03853386,-0.99813553
1323442560.35277057,0.04728959,0.03833071,-0.99814551
1323442560.40550542,0.04744136,0.03835405,-0.99813741
1323442560.45254326,0.04759838,0.03847129,-0.99812542
1323442560.50452566,0.04813041,0.03825011,-0.99810841
1323442560.55378628,0.04803703,0.03840928,-0.99810679
1323442560.60451031,0.04811492,0.03830074,-0.99810721
1323442560.65352273,0.04822775,0.03843430,-0.99809663
1323442560.70456672,0.04825049,0.03837112,-0.99809796
1323442560.75258255,0.04837011,0.03844493,-0.99808933
1323442560.80154157,0.04809048,0.03895351,-0.99808313
1323442560.85354733,0.04777765,0.03898500,-0.99809692
1323442560.90179253,0.04774333,0.03909985,-0.99809407
1323442560.95351601,0.04774400,0.03919955,-0.99809013
1323442561.00152874,0.04722057,0.03955613,-0.99810096
1323442561.05352926,0.04712459,0.03965846,-0.99810144
1323442561.10795665,0.04732175,0.03968263,-0.99809115
1323442561.15357971,0.04716449,0.03978823,-0.99809439
1323442561.20162082,0.04712993,0.03980767,-0.99809525
1323442561.25342917,0.04680770,0.04092505,-0.99806522
1323442561.30155945,0.04662551,0.04081349,-0.99807831
1323442561.35353136,0.04679370,0.04097473,-0.99806384
1323442561.40152526,0.04695229,0.04094530,-0.99805760
1323442561.45458698,0.04695084,0.04083068,-0.99806236
1323442561.50147939,0.04750852,0.04116861,-0.99802209
1323442561.55337286,0.04752091,0.04110531,-0.99802411
1323442561.60148621,0.04763350,0.04107434,-0.99802001
1323442561.65358353,0.04766854,0.04116153,-0.99801475
1323442561.70464230,0.04750085,0.04111270,-0.99802476
1323442561.75368333,0.04759787,0.04117541,-0.99801755
1323442561.80165482,0.04772487,0.04085950,-0.99802447
1323442561.85353541,0.04774327,0.04108261,-0.99801443
1323442561.90148187,0.04784056,0.04134751,-0.99799883
1323442561.95256162,0.04771725,0.04135086,-0.99800459
1323442562.00161910,0.04720765,0.04040341,-0.99806763
1323442562.05355191,0.04714315,0.04050499,-0.99806657
1323442562.10154724,0.04741660,0.04039059,-0.99805825
1323442562.15350080,0.04731542,0.04053028,-0.99805739
1323442562.20154357,0.04727898,0.04074604,-0.99805033
1323442562.25353217,0.04755520,0.04077652,-0.99803596
1323442562.31252456,0.04762283,0.03916552,-0.99809725
1323442562.35353756,0.04751016,0.03907288,-0.99810625
1323442562.40148234,0.04752800,0.03909392,-0.99810458
1323442562.45366502,0.04740451,0.03895765,-0.99811578
1323442562.50105715,0.04787307,0.03837273,-0.99811608
1323442562.56476665,0.04786180,0.03820972,-0.99812287
1323442562.60564733,0.04801156,0.03821712,-0.99811540
1323442562.65353465,0.04793339,0.03825604,-0.99811766
1323442562.70566416,0.04766836,0.03843485,-0.99812348
1323442562.75353122,0.04906644,0.03917442,-0.99802698
1323442562.80553865,0.04888807,0.03899728,-0.99804267
1323442562.85365176,0.04901273,0.03901833,-0.99803573
1323442562.90567327,0.04884395,0.03897843,-0.99804557
1323442562.95367432,0.04869774,0.03916195,-0.99804553
1323442563.00499678,0.04782549,0.03965516,-0.99806823
1323442563.05754709,0.04759029,0.03971978,-0.99807690
1323442563.11272049,0.04754249,0.03992995,-0.99807079
1323442563.15357423,0.04730906,0.03975813,-0.99808875
1323442563.20553207,0.04735137,0.03989673,-0.99808121
1323442563.25367546,0.04551744,0.03989261,-0.99816669
1323442563.30564570,0.04556072,0.03973299,-0.99817108
1323442563.35351038,0.04516260,0.03990071,-0.99818248
1323442563.40467739,0.04491924,0.03984527,-0.99819568
1323442563.45353055,0.04490654,0.03984774,-0.99819615
1323442563.50463271,0.04324811,0.03985130,-0.99826924
1323442563.55263686,0.04303954,0.03964768,-0.99828636
1323442563.60861039,0.04303694,0.03972451,-0.99828342
1323442563.65252161,0.04294674,0.03965612,-0.99829002
1323442563.70158768,0.04281410,0.03973011,-0.99829278
1323442563.75202489,0.04228680,0.03915989,-0.99833778
1323442563.80863118,0.04204980,0.03904033,-0.99835248
1323442563.85353088,0.04193400,0.03908048,-0.99835578
1323442563.90556121,0.04167817,0.03928180,-0.99835859
1323442563.95258474,0.04176844,0.03919218,-0.99835834
1323442564.00149679,0.04223182,0.03845323,-0.99836758
1323442564.05352163,0.04217961,0.03862625,-0.99836311
1323442564.10456681,0.04216408,0.03857136,-0.99836589
1323442564.15351772,0.04197089,0.03851147,-0.99837634
1323442564.20553255,0.04223377,0.03867077,-0.99835909
1323442564.25352240,0.04269102,0.03804794,-0.99836358
1323442564.31263447,0.04249380,0.03790574,-0.99837740
1323442564.35377502,0.04261282,0.03789626,-0.99837269
1323442564.40152121,0.04277634,0.03782558,-0.99836837
1323442564.45511270,0.04294921,0.03789487,-0.99835832
1323442564.50463820,0.04298393,0.03748127,-0.99837244
1323442564.55151558,0.04311530,0.03745078,-0.99836792
1323442564.60558867,0.04301117,0.03731124,-0.99837764
1323442564.65384698,0.04303784,0.03732625,-0.99837593
1323442564.70531225,0.04311377,0.03747628,-0.99836703
1323442564.75367737,0.04365787,0.03829059,-0.99831249
1323442564.80149436,0.04369001,0.03834528,-0.99830898
1323442564.85357141,0.04376076,0.03811260,-0.99831479
1323442564.90556645,0.04381459,0.03811307,-0.99831241
1323442564.96182346,0.04358473,0.03810509,-0.99832278
1323442565.00156164,0.04479076,0.03914568,-0.99822913
1323442565.05353212,0.04484269,0.03928001,-0.99822153
1323442565.10102534,0.04476133,0.03921927,-0.99822757
1323442565.15359497,0.04463863,0.03909902,-0.99823778
1323442565.20109677,0.04457229,0.03919173,-0.99823711
1323442565.25275016,0.04687064,0.03958895,-0.99811615
1323442565.30862761,0.04677072,0.03949667,-0.99812450
1323442565.35378218,0.04676518,0.03934042,-0.99813093
1323442565.40135074,0.04655559,0.03952234,-0.99813354
1323442565.45458961,0.04625177,0.03978334,-0.99813730
1323442565.50153446,0.04682862,0.03972832,-0.99811259
1323442565.55253339,0.04691352,0.03971951,-0.99810895
1323442565.60549712,0.04697730,0.03980094,-0.99810271
1323442565.65666842,0.04729123,0.03979074,-0.99808829
1323442565.70472693,0.04735929,0.03976372,-0.99808614
1323442565.75362039,0.04739631,0.03952199,-0.99809398
1323442565.80465460,0.04718990,0.03946171,-0.99810615
1323442565.85364628,0.04722080,0.03953261,-0.99810188
1323442565.90552497,0.04726327,0.03988835,-0.99808572
1323442565.95352435,0.04750270,0.03989558,-0.99807406
1323442566.00606132,0.04732206,0.04063398,-0.99805286
1323442566.05418706,0.04739487,0.04064450,-0.99804897
1323442566.10568142,0.04761078,0.04056801,-0.99804181
1323442566.16552520,0.04765892,0.04060144,-0.99803815
1323442566.20478320,0.04781665,0.04057455,-0.99803170
1323442566.25365520,0.04896116,0.04065953,-0.99797275
1323442566.31286955,0.04858871,0.04064966,-0.99799135
1323442566.35256577,0.04847798,0.04055196,-0.99800071
1323442566.40554070,0.04867083,0.04054170,-0.99799174
1323442566.45361209,0.04856629,0.04032263,-0.99800571
1323442566.50564075,0.04978476,0.04088619,-0.99792274
1323442566.55254531,0.04968442,0.04071662,-0.99793467
1323442566.60467052,0.04965051,0.04071783,-0.99793631
1323442566.65454888,0.04971282,0.04101528,-0.99792103
1323442566.70455027,0.04974692,0.04109076,-0.99791623
1323442566.75359702,0.05012349,0.04159923,-0.99787631
1323442566.80153942,0.04997467,0.04158288,-0.99788446
1323442566.85352612,0.04999789,0.04162560,-0.99788152
1323442566.91351485,0.05005714,0.04167473,-0.99787650
1323442566.95385718,0.05017110,0.04169530,-0.99786991
